FW4251 Weather Reports


time (UTC)temp
C
wind
direction
speed
KPH
gust
KPH
rain 1hr
cm
rain 24hr
cm
rain mn
cm
humidity
%
barometer
mb
20260509100042 6 360 0.0 3.2 0.00 0.00 0.00 93 1013.1
20260509095539 6 288 0.0 3.2 0.00 0.00 0.00 93 1013.2
20260509095038 6 288 0.0 3.2 0.00 0.00 0.00 93 1013.2
20260509094540 6 360 0.0 3.2 0.00 0.00 0.00 93 1013.2
20260509094036 6 360 0.0 3.2 0.00 0.00 0.00 93 1013.1
20260509093536 6 360 0.0 3.2 0.00 0.00 0.00 93 1013.1
20260509093036 6 288 0.0 1.6 0.00 0.00 0.00 92 1013.0
20260509092535 6 289 0.0 1.6 0.00 0.00 0.00 92 1013.0
20260509092036 6 360 0.0 3.2 0.00 0.00 0.00 92 1013.1
20260509091541 6 360 0.0 3.2 0.00 0.00 0.00 92 1013.0
20260509091035 6 360 0.0 3.2 0.00 0.00 0.00 92 1013.1
20260509090535 6 360 0.0 3.2 0.00 0.00 0.00 92 1013.1
20260509090040 6 360 0.0 3.2 0.00 0.00 0.00 92 1013.2
20260509085534 6 288 0.0 3.2 0.00 0.00 0.00 92 1013.2
20260509085034 6 360 0.0 3.2 0.00 0.00 0.00 92 1013.2
20260509084537 6 289 0.0 3.2 0.00 0.00 0.00 92 1013.2
20260509084035 6 290 0.0 1.6 0.00 0.00 0.00 91 1013.3
20260509083533 6 290 0.0 0.0 0.00 0.00 0.00 91 1013.2
20260509083033 6 290 0.0 0.0 0.00 0.00 0.00 91 1013.1
20260509082532 6 290 0.0 0.0 0.00 0.00 0.00 91 1013.1
20260509082032 6 290 0.0 0.0 0.00 0.00 0.00 91 1013.1
20260509081539 6 290 0.0 0.0 0.00 0.00 0.00 90 1013.1
20260509081033 6 290 0.0 1.6 0.00 0.00 0.00 90 1013.0
20260509080531 6 290 0.0 4.8 0.00 0.00 0.00 90 1013.0
20260509080035 6 290 1.6 4.8 0.00 0.00 0.00 90 1013.1
20260509075532 6 290 0.0 1.6 0.00 0.00 0.00 90 1013.2
20260509075034 6 290 0.0 3.2 0.00 0.00 0.00 89 1013.3
20260509074541 6 290 0.0 3.2 0.00 0.00 0.00 89 1013.2
20260509074029 6 290 0.0 6.4 0.00 0.00 0.00 89 1013.3
20260509073529 6 290 1.6 6.4 0.00 0.00 0.00 88 1013.4
20260509073029 6 290 3.2 6.4 0.00 0.00 0.00 88 1013.4
20260509072529 6 290 3.2 6.4 0.00 0.00 0.00 87 1013.2
20260509072027 6 355 1.6 3.2 0.00 0.00 0.00 87 1013.1
20260509071527 6 355 1.6 3.2 0.00 0.00 0.00 86 1012.9
20260509071027 6 355 0.0 0.0 0.00 0.00 0.00 85 1012.8
20260509070527 6 360 0.0 1.6 0.00 0.00 0.00 84 1012.7
20260509070026 6 360 0.0 3.2 0.00 0.00 0.00 83 1012.6
20260509065525 6 360 0.0 3.2 0.00 0.00 0.00 81 1012.8
20260509065027 6 360 0.0 0.0 0.00 0.00 0.00 81 1012.7
20260509064525 6 355 0.0 0.0 0.00 0.00 0.00 81 1012.7
20260509064027 6 355 0.0 0.0 0.00 0.00 0.00 81 1012.8
20260509063523 6 355 0.0 0.0 0.00 0.00 0.00 81 1012.7
20260509063028 6 355 0.0 0.0 0.00 0.00 0.00 81 1012.8
20260509062525 6 355 0.0 0.0 0.00 0.00 0.00 80 1012.7
20260509062027 6 355 0.0 0.0 0.00 0.00 0.00 80 1012.8
20260509061522 6 355 0.0 0.0 0.00 0.00 0.00 79 1012.9
20260509061032 6 355 0.0 0.0 0.00 0.00 0.00 79 1013.0
20260509060522 6 355 0.0 0.0 0.00 0.00 0.00 80 1013.0
20260509060021 6 355 0.0 0.0 0.00 0.00 0.00 80 1013.0
20260509055520 6 355 0.0 0.0 0.00 0.00 0.00 80 1013.0
20260509055023 6 355 0.0 0.0 0.00 0.00 0.00 81 1013.2
20260509054518 6 360 0.0 0.0 0.00 0.00 0.00 80 1013.3
20260509054017 6 360 0.0 0.0 0.00 0.00 0.00 80 1013.7
20260509053517 6 360 0.0 0.0 0.00 0.00 0.00 80 1013.4
20260509053021 6 360 0.0 0.0 0.00 0.00 0.00 80 1013.3
20260509052516 6 360 0.0 0.0 0.00 0.00 0.00 80 1013.3
20260509052015 6 360 0.0 0.0 0.00 0.00 0.00 80 1013.3
20260509051514 5 360 0.0 0.0 0.00 0.00 0.00 80 1013.3
20260509051017 5 360 0.0 0.0 0.00 0.00 0.00 80 1013.3
20260509050514 5 360 0.0 1.6 0.00 0.00 0.00 80 1013.2
20260509050015 5 360 0.0 1.6 0.00 0.00 0.00 80 1013.3
20260509045518 5 360 0.0 0.0 0.00 0.00 0.00 79 1013.2
20260509045013 5 360 0.0 1.6 0.00 0.00 0.00 79 1013.2
20260509044512 5 360 0.0 1.6 0.00 0.00 0.00 78 1013.2
20260509044019 5 360 0.0 1.6 0.00 0.00 0.00 78 1013.3
20260509043510 5 360 0.0 1.6 0.00 0.00 0.00 77 1013.3
20260509043010 5 360 0.0 0.0 0.00 0.00 0.00 78 1013.4
20260509042512 5 360 0.0 0.0 0.00 0.00 0.00 78 1013.4
20260509042014 5 360 0.0 1.6 0.00 0.00 0.00 78 1013.5
20260509041509 5 360 0.0 1.6 0.00 0.00 0.00 78 1013.3
20260509041007 5 360 0.0 1.6 0.00 0.00 0.00 78 1013.4
20260509040508 5 360 0.0 0.0 0.00 0.00 0.00 77 1013.4
20260509040006 5 360 0.0 0.0 0.00 0.00 0.00 77 1013.3
20260509035506 5 360 0.0 1.6 0.00 0.00 0.00 76 1013.3
20260509035005 5 360 0.0 1.6 0.00 0.00 0.00 76 1013.3
20260509034505 6 360 0.0 0.0 0.00 0.00 0.00 75 1013.4
20260509034006 6 360 0.0 0.0 0.00 0.00 0.00 74 1013.3
20260509033504 6 360 0.0 0.0 0.00 0.00 0.00 74 1013.2
20260509033004 6 360 0.0 0.0 0.00 0.00 0.00 74 1013.1
20260509032504 6 360 0.0 0.0 0.00 0.00 0.00 73 1013.1
20260509032003 6 360 0.0 0.0 0.00 0.00 0.00 72 1013.1
20260509031504 6 360 0.0 0.0 0.00 0.00 0.00 71 1013.1
20260509031004 7 360 0.0 0.0 0.00 0.00 0.00 70 1013.0
20260509030506 7 360 0.0 0.0 0.00 0.00 0.00 69 1012.9
20260509030004 7 360 0.0 0.0 0.00 0.00 0.00 67 1013.1
20260509025503 7 360 0.0 1.6 0.00 0.00 0.00 67 1013.1
20260509025003 7 360 0.0 1.6 0.00 0.00 0.00 66 1013.2
20260509024505 7 360 0.0 0.0 0.00 0.00 0.00 65 1013.2
20260509024003 7 360 0.0 0.0 0.00 0.00 0.00 65 1013.2
20260509023503 7 355 0.0 0.0 0.00 0.00 0.00 64 1013.2
20260509023002 7 360 0.0 0.0 0.00 0.00 0.00 64 1013.2
20260509022503 7 360 0.0 0.0 0.00 0.00 0.00 64 1013.2
20260509022002 7 360 0.0 0.0 0.00 0.00 0.00 64 1013.1
20260509021502 7 360 0.0 0.0 0.00 0.00 0.00 63 1013.1
20260509021001 7 360 0.0 0.0 0.00 0.00 0.00 63 1013.1
20260509020503 8 360 0.0 0.0 0.00 0.00 0.00 62 1013.0
20260509015559 8 360 0.0 1.6 0.00 0.00 0.00 59 1012.8
20260509015059 8 360 0.0 1.6 0.00 0.00 0.00 58 1012.8
20260509014558 8 360 0.0 0.0 0.00 0.00 0.00 57 1012.6
20260509014057 8 360 0.0 1.6 0.00 0.00 0.00 57 1012.6
20260509013557 8 360 0.0 1.6 0.00 0.00 0.00 57 1012.6
20260509013104 9 360 0.0 0.0 0.00 0.00 0.00 55 1012.6
20260509012557 9 360 0.0 0.0 0.00 0.00 0.00 56 1012.6
20260509012058 9 360 0.0 0.0 0.00 0.00 0.00 55 1012.5
20260509011559 8 360 0.0 0.0 0.00 0.00 0.00 54 1012.5
20260509011054 9 360 0.0 0.0 0.00 0.00 0.00 54 1012.4
20260509010554 9 360 0.0 0.0 0.00 0.00 0.00 54 1012.3
20260509010055 9 360 0.0 0.0 0.00 0.00 0.00 53 1012.1
20260509005556 10 360 0.0 0.0 0.00 0.00 0.00 52 1012.0
20260509005054 10 360 0.0 0.0 0.00 0.00 0.00 52 1011.8
20260509004555 10 360 0.0 0.0 0.00 0.00 0.00 52 1011.6
20260509004052 10 360 0.0 0.0 0.00 0.00 0.00 51 1011.5
20260509003553 11 355 0.0 1.6 0.00 0.00 0.00 49 1011.4
20260509003052 11 355 0.0 1.6 0.00 0.00 0.00 48 1011.4
20260509002556 11 355 0.0 1.6 0.00 0.00 0.00 47 1011.5
20260509002053 11 360 0.0 0.0 0.00 0.00 0.00 46 1011.4
20260509001552 12 355 0.0 1.6 0.00 0.00 0.00 45 1011.4
20260509001051 12 355 0.0 3.2 0.00 0.00 0.00 48 1011.4
20260509000555 12 355 0.0 4.8 0.00 0.00 0.00 49 1011.5
20260509000051 12 355 1.6 6.4 0.00 0.00 0.00 45 1011.5
20260508235551 12 355 0.0 6.4 0.00 0.00 0.00 44 1011.5
20260508235054 12 355 0.0 3.2 0.00 0.00 0.00 47 1011.4
20260508234553 12 355 0.0 3.2 0.00 0.00 0.00 45 1011.3
20260508234053 12 355 0.0 4.8 0.00 0.00 0.00 43 1011.3
20260508233550 12 360 0.0 3.2 0.00 0.00 0.00 43 1011.2
20260508233054 13 355 0.0 6.4 0.00 0.00 0.00 40 1011.2
20260508232550 13 355 0.0 6.4 0.00 0.00 0.00 41 1011.1
20260508232050 13 355 1.6 6.4 0.00 0.00 0.00 40 1011.0
20260508231550 13 355 3.2 8.0 0.00 0.00 0.00 40 1011.1
20260508231050 13 336 0.0 8.0 0.00 0.00 0.00 39 1011.1
20260508230549 14 331 3.2 8.0 0.00 0.00 0.00 37 1011.1
20260508230050 14 355 3.2 8.0 0.00 0.00 0.00 38 1011.0
20260508225549 14 336 1.6 6.4 0.00 0.00 0.00 39 1011.0
20260508225048 15 336 3.2 8.0 0.00 0.00 0.00 38 1010.9
20260508224551 15 326 1.6 8.0 0.00 0.00 0.00 40 1010.9
20260508224047 15 319 3.2 9.7 0.00 0.00 0.00 37 1010.8
20260508223551 15 304 6.4 9.7 0.00 0.00 0.00 37 1010.8
20260508223047 15 273 4.8 9.7 0.00 0.00 0.00 37 1010.8
20260508222545 15 355 1.6 11.3 0.00 0.00 0.00 39 1010.8
20260508222045 15 347 6.4 12.9 0.00 0.00 0.00 37 1010.9
20260508221544 15 342 4.8 14.5 0.00 0.00 0.00 38 1010.8
20260508221044 15 355 4.8 14.5 0.00 0.00 0.00 37 1010.8
20260508220643 15 28 4.8 9.7 0.00 0.00 0.00 37 1010.9
20260508220043 15 344 3.2 12.9 0.00 0.00 0.00 38 1010.9
20260508215542 15 337 3.2 16.1 0.00 0.00 0.00 38 1010.8
20260508215042 15 322 1.6 8.0 0.00 0.00 0.00 38 1010.9
20260508214541 15 249 1.6 9.7 0.00 0.00 0.00 37 1010.7
20260508214040 15 340 4.8 14.5 0.00 0.00 0.00 39 1010.9
20260508213539 15 355 4.8 14.5 0.00 0.00 0.00 40 1010.8
20260508213043 15 346 6.4 19.3 0.00 0.00 0.00 41 1010.9
20260508212539 15 315 9.7 17.7 0.00 0.00 0.00 40 1011.0
20260508212039 15 5 6.4 17.7 0.00 0.00 0.00 41 1010.8
20260508211540 15 343 8.0 17.7 0.00 0.00 0.00 42 1011.0
20260508211041 15 355 8.0 17.7 0.00 0.00 0.00 40 1011.0
20260508210538 15 340 8.0 20.9 0.00 0.00 0.00 41 1011.0
20260508210038 15 360 6.4 22.5 0.00 0.00 0.00 43 1011.0
20260508205538 15 309 11.3 22.5 0.00 0.00 0.00 43 1011.0
20260508205038 15 5 9.7 24.1 0.00 0.00 0.00 42 1010.9
20260508204539 15 283 16.1 24.1 0.00 0.00 0.00 42 1011.0
20260508204037 15 344 6.4 24.1 0.00 0.00 0.00 43 1010.9
20260508203539 15 343 8.0 24.1 0.00 0.00 0.00 46 1011.0
20260508203039 15 348 8.0 20.9 0.00 0.00 0.00 45 1010.9
20260508202536 15 5 11.3 20.9 0.00 0.00 0.00 44 1010.9
20260508202039 15 327 8.0 19.3 0.00 0.00 0.00 46 1010.9
20260508201538 15 341 9.7 19.3 0.00 0.00 0.00 45 1010.9
20260508201035 15 336 8.0 17.7 0.00 0.00 0.00 46 1010.9
20260508200535 15 321 6.4 29.0 0.00 0.00 0.00 48 1010.9
20260508200043 14 325 12.9 29.0 0.00 0.00 0.00 47 1011.0
20260508195534 15 17 16.1 29.0 0.00 0.00 0.00 46 1011.1
20260508195034 14 348 12.9 29.0 0.00 0.00 0.00 47 1011.2
20260508194536 15 295 12.9 24.1 0.00 0.00 0.00 46 1011.1
20260508194033 15 14 9.7 20.9 0.00 0.00 0.00 48 1011.2
20260508193532 15 355 9.7 17.7 0.00 0.00 0.00 47 1011.2
20260508193032 15 345 4.8 19.3 0.00 0.00 0.00 49 1011.1
20260508192531 15 360 8.0 14.5 0.00 0.00 0.00 47 1011.2
20260508192030 15 331 6.4 14.5 0.00 0.00 0.00 50 1011.2
20260508191532 15 315 8.0 17.7 0.00 0.00 0.00 47 1011.3
20260508191029 14 342 9.7 20.9 0.00 0.00 0.00 49 1011.3
20260508190528 14 335 8.0 22.5 0.00 0.00 0.00 53 1011.3
20260508190029 14 349 9.7 22.5 0.00 0.00 0.00 52 1011.3
20260508185527 15 330 4.8 16.1 0.00 0.00 0.00 53 1011.3
20260508185029 14 348 3.2 17.7 0.00 0.00 0.00 53 1011.4
20260508184525 13 286 8.0 20.9 0.00 0.00 0.00 53 1011.4
20260508184024 13 347 3.2 20.9 0.00 0.00 0.00 56 1011.4
20260508183527 13 9 4.8 17.7 0.00 0.00 0.00 56 1011.4
20260508183025 13 348 6.4 17.7 0.00 0.00 0.00 56 1011.6
20260508182523 13 84 4.8 17.7 0.00 0.00 0.00 55 1011.5
20260508182022 13 69 1.6 14.5 0.00 0.00 0.00 56 1011.6
20260508181522 13 24 4.8 16.1 0.00 0.00 0.00 56 1011.6
20260508181021 13 360 6.4 20.9 0.00 0.00 0.00 55 1011.7
20260508180521 13 355 9.7 20.9 0.00 0.00 0.00 54 1011.7
20260508180021 13 32 4.8 8.0 0.00 0.00 0.00 57 1011.7
20260508175520 12 340 1.6 9.7 0.00 0.00 0.00 59 1011.7
20260508175022 12 341 4.8 14.5 0.00 0.00 0.00 57 1011.7
20260508174620 12 44 4.8 14.5 0.00 0.00 0.00 57 1011.6
20260508174019 12 351 3.2 14.5 0.00 0.00 0.00 56 1011.7
20260508173518 12 331 4.8 12.9 0.00 0.00 0.00 56 1011.5
20260508173020 12 336 1.6 17.7 0.00 0.00 0.00 57 1011.3
20260508172522 12 350 8.0 17.7 0.00 0.00 0.00 55 1011.2
20260508172018 12 301 3.2 16.1 0.00 0.00 0.00 55 1011.3
20260508171519 13 351 4.8 14.5 0.00 0.00 0.00 58 1011.3
20260508171017 12 242 4.8 14.5 0.00 0.00 0.00 58 1011.4
20260508170518 12 308 3.2 14.5 0.00 0.00 0.00 58 1011.4
20260508170017 11 328 3.2 8.0 0.00 0.00 0.00 58 1011.4
20260508165516 11 329 1.6 6.4 0.00 0.00 0.00 59 1011.5
20260508165017 11 331 3.2 6.4 0.00 0.00 0.00 59 1011.4
20260508164517 11 336 1.6 8.0 0.00 0.00 0.00 58 1011.5
20260508164016 11 336 3.2 9.7 0.00 0.00 0.00 59 1011.7
20260508163515 11 322 4.8 8.0 0.00 0.00 0.00 60 1011.7
20260508163022 11 328 3.2 9.7 0.00 0.00 0.00 63 1011.5
20260508162517 11 309 4.8 14.5 0.00 0.00 0.00 61 1011.8
20260508162018 11 335 6.4 14.5 0.00 0.00 0.00 60 1011.9
20260508161516 11 349 6.4 12.9 0.00 0.00 0.00 61 1011.7
20260508161015 11 335 4.8 17.7 0.00 0.00 0.00 61 1011.8
20260508160515 11 323 4.8 17.7 0.00 0.00 0.00 60 1011.6
20260508160014 11 355 6.4 17.7 0.00 0.00 0.00 58 1011.5
20260508155516 11 323 4.8 8.0 0.00 0.00 0.00 58 1011.7
20260508155014 11 229 1.6 14.5 0.00 0.00 0.00 56 1011.4
20260508154537 11 227 3.2 14.5 0.00 0.00 0.00 53 1011.3
20260508154015 12 323 3.2 12.9 0.00 0.00 0.00 53 1011.4
20260508153512 12 234 6.4 16.1 0.00 0.00 0.00 53 1011.3
20260508153013 12 22 3.2 16.1 0.00 0.00 0.00 52 1011.2
20260508152513 13 189 3.2 9.7 0.00 0.00 0.00 53 1011.1
20260508152011 12 166 4.8 12.9 0.00 0.00 0.00 52 1011.1
20260508151514 12 174 6.4 12.9 0.00 0.00 0.00 53 1011.1
20260508151015 12 241 1.6 11.3 0.00 0.00 0.00 56 1011.1
20260508150512 12 140 1.6 11.3 0.00 0.00 0.00 54 1011.1
20260508150010 12 204 4.8 11.3 0.00 0.00 0.00 56 1011.1
20260508145513 12 200 4.8 14.5 0.00 0.00 0.00 52 1011.1
20260508145010 12 302 6.4 14.5 0.00 0.00 0.00 51 1011.1
20260508144510 12 236 6.4 16.1 0.00 0.00 0.00 51 1011.2
20260508144013 12 226 8.0 16.1 0.00 0.00 0.00 51 1011.2
20260508143508 13 198 3.2 14.5 0.00 0.00 0.00 48 1011.3
20260508143008 12 325 3.2 17.7 0.00 0.00 0.00 51 1011.4
20260508142507 12 233 4.8 17.7 0.00 0.00 0.00 48 1011.3
20260508142007 12 281 3.2 11.3 0.00 0.00 0.00 54 1011.6
20260508141506 12 329 4.8 14.5 0.00 0.00 0.00 48 1011.4
20260508141006 12 323 4.8 16.1 0.00 0.00 0.00 50 1011.5
20260508140505 12 318 8.0 17.7 0.00 0.00 0.00 46 1011.5
20260508140005 12 303 3.2 14.5 0.00 0.00 0.00 50 1011.6
20260508135506 12 250 4.8 19.3 0.00 0.00 0.00 49 1011.6
20260508135004 12 288 8.0 19.3 0.00 0.00 0.00 48 1011.5
20260508134504 12 225 6.4 17.7 0.00 0.00 0.00 49 1011.6
20260508134002 11 296 1.6 14.5 0.00 0.00 0.00 51 1011.5
20260508133600 12 286 4.8 14.5 0.00 0.00 0.00 52 1011.6
20260508133102 11 271 4.8 14.5 0.00 0.00 0.00 53 1011.5
20260508132558 11 338 4.8 16.1 0.00 0.00 0.00 52 1011.7
20260508132059 11 288 6.4 17.7 0.00 0.00 0.00 52 1011.6
20260508131603 11 314 6.4 17.7 0.00 0.00 0.00 52 1011.7
20260508131058 11 323 3.2 14.5 0.00 0.00 0.00 55 1011.6
20260508130557 11 265 6.4 14.5 0.00 0.00 0.00 52 1011.6
20260508130054 11 344 3.2 12.9 0.00 0.00 0.00 59 1011.6
20260508125553 10 294 3.2 11.3 0.00 0.00 0.00 59 1011.7
20260508125051 10 348 3.2 11.3 0.00 0.00 0.00 62 1011.6
20260508124555 9 260 0.0 4.8 0.00 0.00 0.00 64 1011.7
20260508124050 9 258 1.6 4.8 0.00 0.00 0.00 68 1011.8
20260508123549 9 255 0.0 4.8 0.00 0.00 0.00 68 1011.8
20260508123052 8 248 3.2 6.4 0.00 0.00 0.00 68 1011.9
20260508122547 8 248 3.2 6.4 0.00 0.00 0.00 68 1012.0
20260508122047 8 248 0.0 6.4 0.00 0.00 0.00 70 1011.9
20260508121548 8 247 1.6 6.4 0.00 0.00 0.00 70 1012.0
20260508121047 8 269 1.6 9.7 0.00 0.00 0.00 72 1012.1
20260508120547 8 270 3.2 9.7 0.00 0.00 0.00 73 1012.0
20260508120047 8 250 1.6 11.3 0.00 0.00 0.00 72 1012.1
20260508115547 7 360 4.8 11.3 0.00 0.00 0.00 75 1012.1
20260508115048 7 211 6.4 11.3 0.00 0.00 0.00 75 1012.0
20260508114547 7 273 6.4 14.5 0.00 0.00 0.00 75 1012.0
20260508114146 7 208 6.4 14.5 0.00 0.00 0.00 75 1012.1
20260508113544 7 192 4.8 14.5 0.00 0.00 0.00 76 1011.9
20260508113045 7 190 6.4 11.3 0.00 0.00 0.00 77 1011.8
20260508112543 6 226 4.8 9.7 0.00 0.00 0.00 78 1011.9
20260508112044 6 242 1.6 8.0 0.00 0.00 0.00 79 1011.8
20260508111542 6 205 1.6 6.4 0.00 0.00 0.00 79 1011.7
20260508111042 6 360 3.2 8.0 0.00 0.00 0.00 79 1011.7
20260508110541 6 360 3.2 16.1 0.00 0.00 0.00 78 1011.6
20260508110041 6 360 3.2 16.1 0.00 0.00 0.00 78 1011.7
20260508105541 6 360 4.8 12.9 0.00 0.00 0.00 78 1011.7
20260508105041 6 360 3.2 14.5 0.00 0.00 0.00 77 1011.7
20260508104541 6 360 4.8 14.5 0.00 0.00 0.00 77 1011.8
20260508104039 6 360 3.2 9.7 0.00 0.00 0.00 76 1011.6
20260508103539 6 360 1.6 9.7 0.00 0.00 0.00 76 1011.6
20260508103039 6 360 1.6 12.9 0.00 0.00 0.00 76 1011.6
20260508102537 6 360 6.4 12.9 0.00 0.00 0.00 76 1011.5
20260508102040 6 360 3.2 9.7 0.00 0.00 0.00 76 1011.5
20260508101536 6 360 3.2 8.0 0.00 0.00 0.00 76 1011.5
20260508101036 6 360 3.2 14.5 0.00 0.00 0.00 75 1011.4
20260508100534 6 360 4.8 14.5 0.00 0.00 0.00 75 1011.2